GLO1271 SBCH-SBSP

Flight info

Callsign GLO1271
Flight time 1h 7m
Altitude 37000
Route IMBIM UM400 KOXAG UM540 ANISE
Aircraft B738/M-SDFGIKLORWXY/LB1

Departure

Time 2026-05-07 22:45
Airport Serafin Enoss Bertaso Airport (SBCH)

Arrival

Time 2026-05-07 23:52
Airport Congonhas–Deputado Freitas Nobre Airport (SBSP)
Time Latitude Longitude Altitude Speed Heading
2026-05-07 22:33 -27.13236 -52.66058 2132 ft 0 kts 56°
2026-05-07 22:38 -27.13247 -52.66076 2130 ft 3 kts 58°
2026-05-07 22:39 -27.13259 -52.66095 2132 ft 4 kts 31°
2026-05-07 22:39 -27.13284 -52.66101 2127 ft 4 kts
2026-05-07 22:39 -27.13306 -52.66105 2127 ft 4 kts 12°
2026-05-07 22:39 -27.13330 -52.66110 2128 ft 4 kts 25°
2026-05-07 22:40 -27.13346 -52.66128 2128 ft 4 kts 82°
2026-05-07 22:40 -27.13346 -52.66154 2127 ft 1 kts 100°
2026-05-07 22:42 -27.13347 -52.66143 2128 ft 5 kts 99°
2026-05-07 22:42 -27.13357 -52.66076 2128 ft 13 kts 99°
2026-05-07 22:42 -27.13376 -52.65947 2127 ft 21 kts 99°
2026-05-07 22:43 -27.13403 -52.65752 2127 ft 29 kts 99°
2026-05-07 22:43 -27.13436 -52.65520 2123 ft 29 kts 98°
2026-05-07 22:43 -27.13467 -52.65297 2123 ft 28 kts 99°
2026-05-07 22:43 -27.13496 -52.65088 2124 ft 26 kts 99°
2026-05-07 22:44 -27.13527 -52.64920 2126 ft 8 kts 126°
2026-05-07 22:44 -27.13556 -52.64881 2126 ft 6 kts 70°
2026-05-07 22:44 -27.13525 -52.64895 2128 ft 8 kts 290°
2026-05-07 22:44 -27.13499 -52.65069 2124 ft 58 kts 278°
2026-05-07 22:45 -27.13389 -52.65847 2126 ft 141 kts 279°
2026-05-07 22:45 -27.13228 -52.67108 2643 ft 170 kts 284°
2026-05-07 22:45 -27.13038 -52.68425 3647 ft 173 kts 289°
2026-05-07 22:45 -27.12823 -52.69818 4195 ft 192 kts 292°
2026-05-07 22:46 -27.12588 -52.71381 4467 ft 215 kts 289°
2026-05-07 22:46 -27.12296 -52.73119 4656 ft 236 kts 295°
2026-05-07 22:46 -27.11402 -52.74634 5162 ft 236 kts 323°
2026-05-07 22:46 -27.09993 -52.75530 6147 ft 231 kts 343°
2026-05-07 22:47 -27.08392 -52.75697 7050 ft 239 kts
2026-05-07 22:47 -27.06768 -52.75034 7696 ft 265 kts 27°
2026-05-07 22:47 -27.05456 -52.73461 8467 ft 289 kts 52°
2026-05-07 22:47 -27.04807 -52.71257 9278 ft 311 kts 79°
2026-05-07 22:48 -27.05022 -52.68777 10010 ft 329 kts 101°
2026-05-07 22:48 -27.05691 -52.66240 10364 ft 352 kts 104°
2026-05-07 22:48 -27.06475 -52.63528 10547 ft 377 kts 104°
2026-05-07 22:48 -27.07264 -52.60628 10711 ft 400 kts 104°
2026-05-07 22:49 -27.08077 -52.57581 11056 ft 413 kts 104°
2026-05-07 22:49 -27.08908 -52.54466 11618 ft 419 kts 104°
2026-05-07 22:49 -27.09753 -52.51320 12254 ft 422 kts 103°
2026-05-07 22:49 -27.10595 -52.48200 12898 ft 425 kts 103°
2026-05-07 22:50 -27.11460 -52.45001 13520 ft 429 kts 103°
2026-05-07 22:50 -27.12331 -52.41775 14023 ft 434 kts 103°
2026-05-07 22:50 -27.13213 -52.38507 14565 ft 438 kts 103°
2026-05-07 22:50 -27.14100 -52.35218 15145 ft 440 kts 103°
2026-05-07 22:51 -27.14989 -52.31920 15672 ft 443 kts 103°
2026-05-07 22:51 -27.15884 -52.28598 16229 ft 446 kts 103°
2026-05-07 22:51 -27.16623 -52.25223 16807 ft 443 kts 93°
2026-05-07 22:51 -27.16643 -52.21809 17363 ft 435 kts 77°
2026-05-07 22:52 -27.15986 -52.18512 17899 ft 430 kts 65°
2026-05-07 22:52 -27.14897 -52.15387 18320 ft 431 kts 62°
2026-05-07 22:52 -27.13774 -52.12254 18715 ft 435 kts 62°
2026-05-07 22:52 -27.12648 -52.09089 19211 ft 437 kts 63°
2026-05-07 22:53 -27.11526 -52.05905 19709 ft 439 kts 63°
2026-05-07 22:53 -27.10421 -52.02747 20157 ft 442 kts 63°
2026-05-07 22:53 -27.09294 -51.99506 20559 ft 447 kts 63°
2026-05-07 22:53 -27.08164 -51.96248 20983 ft 450 kts 63°
2026-05-07 22:54 -27.07027 -51.92967 21448 ft 452 kts 63°
2026-05-07 22:54 -27.05885 -51.89672 21935 ft 454 kts 63°
2026-05-07 22:54 -27.04737 -51.86358 22352 ft 457 kts 63°
2026-05-07 22:54 -27.03577 -51.83017 22717 ft 461 kts 63°
2026-05-07 22:55 -27.02412 -51.79664 23100 ft 464 kts 63°
2026-05-07 22:55 -27.01231 -51.76268 23436 ft 467 kts 63°
2026-05-07 22:55 -27.00043 -51.72857 23748 ft 470 kts 63°
2026-05-07 22:55 -26.98850 -51.69432 24066 ft 473 kts 63°
2026-05-07 22:56 -26.97664 -51.66030 24340 ft 476 kts 63°
2026-05-07 22:56 -26.96454 -51.62563 24627 ft 478 kts 63°
2026-05-07 22:56 -26.95239 -51.59085 24933 ft 480 kts 63°
2026-05-07 22:56 -26.94020 -51.55599 25187 ft 483 kts 63°
2026-05-07 22:57 -26.92783 -51.52069 25362 ft 488 kts 63°
2026-05-07 22:57 -26.91534 -51.48507 25618 ft 491 kts 63°
2026-05-07 22:57 -26.90283 -51.44939 25971 ft 492 kts 63°
2026-05-07 22:57 -26.89026 -51.41358 26179 ft 496 kts 63°
2026-05-07 22:58 -26.87762 -51.37758 26455 ft 498 kts 63°
2026-05-07 22:58 -26.86491 -51.34144 26727 ft 500 kts 63°
2026-05-07 22:58 -26.85212 -51.30511 26937 ft 503 kts 63°
2026-05-07 22:58 -26.83937 -51.26895 27110 ft 507 kts 63°
2026-05-07 22:59 -26.82620 -51.23163 27359 ft 509 kts 63°
2026-05-07 22:59 -26.81333 -51.19517 27630 ft 511 kts 63°
2026-05-07 22:59 -26.80011 -51.15773 27881 ft 512 kts 63°
2026-05-07 22:59 -26.78713 -51.12104 28090 ft 515 kts 63°
2026-05-07 23:00 -26.77387 -51.08359 28294 ft 517 kts 63°
2026-05-07 23:00 -26.76056 -51.04603 28581 ft 517 kts 63°
2026-05-07 23:00 -26.74745 -51.00902 28939 ft 516 kts 63°
2026-05-07 23:00 -26.73407 -50.97132 29311 ft 516 kts 63°
2026-05-07 23:01 -26.72081 -50.93401 29664 ft 516 kts 63°
2026-05-07 23:01 -26.70767 -50.89708 30003 ft 516 kts 63°
2026-05-07 23:01 -26.69439 -50.85981 30294 ft 516 kts 63°
2026-05-07 23:01 -26.68111 -50.82255 30599 ft 515 kts 63°
2026-05-07 23:02 -26.66784 -50.78535 30913 ft 515 kts 63°
2026-05-07 23:02 -26.65452 -50.74808 31230 ft 515 kts 63°
2026-05-07 23:02 -26.64138 -50.71132 31548 ft 515 kts 63°
2026-05-07 23:02 -26.62805 -50.67409 31839 ft 515 kts 63°
2026-05-07 23:03 -26.61469 -50.63679 32151 ft 515 kts 63°
2026-05-07 23:03 -26.60135 -50.59958 32515 ft 513 kts 63°
2026-05-07 23:03 -26.58822 -50.56299 32882 ft 512 kts 63°
2026-05-07 23:03 -26.57493 -50.52598 33205 ft 512 kts 63°
2026-05-07 23:04 -26.56165 -50.48906 33492 ft 512 kts 63°
2026-05-07 23:04 -26.54836 -50.45215 33818 ft 512 kts 63°
2026-05-07 23:04 -26.53500 -50.41509 34107 ft 511 kts 63°
2026-05-07 23:04 -26.52185 -50.37863 34277 ft 514 kts 64°
2026-05-07 23:05 -26.50842 -50.34146 34397 ft 517 kts 64°
2026-05-07 23:05 -26.49490 -50.30407 34606 ft 518 kts 64°
2026-05-07 23:05 -26.48138 -50.26667 34868 ft 518 kts 64°
2026-05-07 23:05 -26.46788 -50.22936 35106 ft 518 kts 64°
2026-05-07 23:06 -26.45430 -50.19188 35290 ft 519 kts 64°
2026-05-07 23:06 -26.44090 -50.15492 35465 ft 521 kts 64°
2026-05-07 23:06 -26.42723 -50.11730 35602 ft 524 kts 64°
2026-05-07 23:06 -26.41349 -50.07948 35805 ft 524 kts 64°
2026-05-07 23:07 -26.39975 -50.04170 36073 ft 523 kts 64°
2026-05-07 23:07 -26.38606 -50.00406 36357 ft 522 kts 64°
2026-05-07 23:07 -26.37255 -49.96698 36629 ft 521 kts 64°
2026-05-07 23:07 -26.35881 -49.92930 36881 ft 521 kts 64°
2026-05-07 23:08 -26.34509 -49.89174 36930 ft 525 kts 64°
2026-05-07 23:08 -26.31750 -49.81631 36936 ft 524 kts 64°
2026-05-07 23:09 -26.28999 -49.74116 36926 ft 520 kts 64°
2026-05-07 23:09 -26.26290 -49.66731 36945 ft 517 kts 64°
2026-05-07 23:10 -26.23563 -49.59317 36942 ft 516 kts 64°
2026-05-07 23:10 -26.20833 -49.51909 36938 ft 515 kts 64°
2026-05-07 23:11 -26.18109 -49.44529 36943 ft 516 kts 64°
2026-05-07 23:11 -26.15391 -49.37178 36951 ft 517 kts 64°
2026-05-07 23:12 -26.12640 -49.29747 36947 ft 520 kts 64°
2026-05-07 23:12 -26.09804 -49.22309 36944 ft 521 kts 62°
2026-05-07 23:13 -26.06731 -49.15046 36942 ft 522 kts 61°
2026-05-07 23:13 -26.03647 -49.07740 36919 ft 523 kts 62°
2026-05-07 23:14 -26.00590 -49.00375 36936 ft 523 kts 62°
2026-05-07 23:14 -25.97567 -48.93059 36938 ft 523 kts 62°
2026-05-07 23:15 -25.94521 -48.85701 36934 ft 522 kts 62°
2026-05-07 23:15 -25.91499 -48.78349 36920 ft 522 kts 62°
2026-05-07 23:16 -25.88447 -48.71083 36909 ft 519 kts 61°
2026-05-07 23:16 -25.85379 -48.63846 36887 ft 517 kts 62°
2026-05-07 23:17 -25.82358 -48.56667 36904 ft 514 kts 62°
2026-05-07 23:17 -25.79318 -48.49452 36898 ft 513 kts 62°
2026-05-07 23:18 -25.76299 -48.42305 36888 ft 513 kts 62°
2026-05-07 23:18 -25.73266 -48.35140 36901 ft 513 kts 62°
2026-05-07 23:19 -25.70235 -48.27994 36900 ft 514 kts 62°
2026-05-07 23:19 -25.67178 -48.20794 36887 ft 516 kts 62°
2026-05-07 23:20 -25.64131 -48.13629 36901 ft 517 kts 62°
2026-05-07 23:20 -25.61060 -48.06404 36896 ft 519 kts 62°
2026-05-07 23:21 -25.57987 -47.99134 36887 ft 520 kts 63°
2026-05-07 23:21 -25.54936 -47.91920 36900 ft 520 kts 63°
2026-05-07 23:22 -25.51859 -47.84666 36900 ft 520 kts 63°
2026-05-07 23:22 -25.48761 -47.77409 36899 ft 519 kts 63°
2026-05-07 23:23 -25.45669 -47.70254 36909 ft 519 kts 62°
2026-05-07 23:23 -25.42554 -47.63048 36907 ft 518 kts 62°
2026-05-07 23:24 -25.39447 -47.55861 36899 ft 517 kts 63°
2026-05-07 23:24 -25.36348 -47.48685 36911 ft 516 kts 63°
2026-05-07 23:25 -25.33773 -47.42724 36914 ft 516 kts 63°
2026-05-07 23:25 -25.30680 -47.35573 36909 ft 515 kts 63°
2026-05-07 23:26 -25.27595 -47.28454 36915 ft 515 kts 63°
2026-05-07 23:26 -25.24495 -47.21312 36916 ft 513 kts 63°
2026-05-07 23:26 -25.22977 -47.17816 36890 ft 498 kts 63°
2026-05-07 23:27 -25.20065 -47.11119 36898 ft 470 kts 63°
2026-05-07 23:27 -25.18668 -47.07912 36898 ft 456 kts 63°
2026-05-07 23:27 -25.17308 -47.04791 36900 ft 443 kts 63°
2026-05-07 23:28 -25.15996 -47.01816 36900 ft 431 kts 59°
2026-05-07 23:28 -25.14337 -46.99067 36929 ft 429 kts 45°
2026-05-07 23:28 -25.09808 -46.94793 36946 ft 430 kts 26°
2026-05-07 23:29 -25.04574 -46.91413 36926 ft 441 kts 25°
2026-05-07 23:29 -24.99247 -46.88002 36929 ft 445 kts 25°
2026-05-07 23:30 -24.93996 -46.84581 36907 ft 435 kts 26°
2026-05-07 23:30 -24.91412 -46.82887 36785 ft 428 kts 26°
2026-05-07 23:30 -24.88854 -46.81210 36229 ft 431 kts 26°
2026-05-07 23:31 -24.86221 -46.79492 35167 ft 447 kts 26°
2026-05-07 23:31 -24.83505 -46.77723 33938 ft 468 kts 27°
2026-05-07 23:31 -24.80646 -46.75858 32498 ft 486 kts 28°
2026-05-07 23:31 -24.77695 -46.73928 31345 ft 497 kts 28°
2026-05-07 23:32 -24.74699 -46.71966 30323 ft 502 kts 28°
2026-05-07 23:32 -24.71688 -46.69995 29296 ft 504 kts 28°
2026-05-07 23:32 -24.68660 -46.68015 28201 ft 504 kts 28°
2026-05-07 23:32 -24.65679 -46.66070 27131 ft 505 kts 28°
2026-05-07 23:33 -24.62638 -46.64103 26211 ft 502 kts 26°
2026-05-07 23:33 -24.59439 -46.62705 25453 ft 489 kts
2026-05-07 23:33 -24.56137 -46.62324 24831 ft 475 kts 356°
2026-05-07 23:33 -24.52857 -46.62396 24184 ft 467 kts 355°
2026-05-07 23:34 -24.49619 -46.62482 23439 ft 463 kts 355°
2026-05-07 23:34 -24.46406 -46.62538 22615 ft 459 kts 356°
2026-05-07 23:34 -24.43232 -46.62559 21929 ft 452 kts 357°
2026-05-07 23:34 -24.40118 -46.62565 21283 ft 444 kts 358°
2026-05-07 23:35 -24.37041 -46.62567 20621 ft 438 kts 358°
2026-05-07 23:35 -24.34055 -46.62567 19966 ft 432 kts 358°
2026-05-07 23:35 -24.31069 -46.62567 19318 ft 426 kts 359°
2026-05-07 23:35 -24.28116 -46.62569 18698 ft 420 kts 359°
2026-05-07 23:36 -24.25207 -46.62571 18059 ft 414 kts 359°
2026-05-07 23:36 -24.22339 -46.62573 17335 ft 409 kts 359°
2026-05-07 23:36 -24.19534 -46.62575 16641 ft 405 kts 359°
2026-05-07 23:36 -24.16725 -46.62577 15943 ft 400 kts 360°
2026-05-07 23:37 -24.13941 -46.62579 15263 ft 396 kts 360°
2026-05-07 23:37 -24.11197 -46.62580 14616 ft 392 kts
2026-05-07 23:37 -24.08518 -46.62582 13987 ft 388 kts
2026-05-07 23:37 -24.05813 -46.62584 13309 ft 384 kts
2026-05-07 23:38 -24.03158 -46.62585 12678 ft 379 kts
2026-05-07 23:38 -24.00543 -46.62586 12087 ft 372 kts 360°
2026-05-07 23:38 -23.97955 -46.62588 11422 ft 369 kts 359°
2026-05-07 23:38 -23.95402 -46.62589 10771 ft 365 kts 359°
2026-05-07 23:39 -23.92904 -46.62591 10219 ft 360 kts 359°
2026-05-07 23:39 -23.90410 -46.62592 9645 ft 356 kts 358°
2026-05-07 23:39 -23.87948 -46.62493 8991 ft 354 kts
2026-05-07 23:39 -23.85626 -46.61570 8338 ft 357 kts 27°
2026-05-07 23:40 -23.83651 -46.59917 7743 ft 358 kts 43°
2026-05-07 23:40 -23.81972 -46.57981 7140 ft 352 kts 36°
2026-05-07 23:40 -23.79814 -46.56831 6508 ft 343 kts 11°
2026-05-07 23:40 -23.77465 -46.56651 5888 ft 337 kts 354°
2026-05-07 23:41 -23.75176 -46.57151 5249 ft 334 kts 340°
2026-05-07 23:41 -23.73130 -46.58321 4849 ft 327 kts 328°
2026-05-07 23:41 -23.71244 -46.59643 4508 ft 323 kts 328°
2026-05-07 23:41 -23.69357 -46.60984 4415 ft 325 kts 328°
2026-05-07 23:42 -23.67433 -46.62335 4368 ft 323 kts 328°
2026-05-07 23:42 -23.65677 -46.63776 4352 ft 307 kts 314°
2026-05-07 23:42 -23.64636 -46.65681 4377 ft 294 kts 290°
2026-05-07 23:42 -23.64478 -46.67853 4487 ft 282 kts 264°
2026-05-07 23:43 -23.65211 -46.69779 4649 ft 272 kts 238°
2026-05-07 23:43 -23.66576 -46.71209 4844 ft 276 kts 216°
2026-05-07 23:43 -23.68364 -46.72023 5050 ft 284 kts 193°
2026-05-07 23:43 -23.70321 -46.72073 5236 ft 285 kts 171°
2026-05-07 23:44 -23.72127 -46.71344 5401 ft 270 kts 149°
2026-05-07 23:44 -23.73709 -46.70336 5578 ft 258 kts 147°
2026-05-07 23:44 -23.75248 -46.69324 5766 ft 257 kts 147°
2026-05-07 23:44 -23.76781 -46.68321 5950 ft 258 kts 148°
2026-05-07 23:45 -23.78313 -46.67326 5969 ft 252 kts 148°
2026-05-07 23:45 -23.79771 -46.66386 5973 ft 235 kts 148°
2026-05-07 23:45 -23.81148 -46.65500 5952 ft 225 kts 148°
2026-05-07 23:45 -23.82491 -46.64635 5953 ft 223 kts 147°
2026-05-07 23:46 -23.83749 -46.63665 5942 ft 220 kts 125°
2026-05-07 23:46 -23.84334 -46.62223 5952 ft 208 kts 88°
2026-05-07 23:46 -23.84121 -46.60697 5851 ft 201 kts 59°
2026-05-07 23:46 -23.83375 -46.59443 5762 ft 196 kts 45°
2026-05-07 23:47 -23.82521 -46.58274 5627 ft 195 kts 46°
2026-05-07 23:47 -23.81693 -46.57132 5517 ft 189 kts 45°
2026-05-07 23:47 -23.80874 -46.56007 5434 ft 189 kts 45°
2026-05-07 23:47 -23.79941 -46.55029 5311 ft 184 kts 21°
2026-05-07 23:48 -23.78718 -46.54822 5220 ft 178 kts 349°
2026-05-07 23:48 -23.77585 -46.55342 5094 ft 178 kts 328°
2026-05-07 23:48 -23.76544 -46.56063 4983 ft 177 kts 329°
2026-05-07 23:48 -23.75491 -46.56781 4866 ft 178 kts 329°
2026-05-07 23:49 -23.74461 -46.57488 4757 ft 177 kts 329°
2026-05-07 23:49 -23.73423 -46.58204 4632 ft 176 kts 329°
2026-05-07 23:49 -23.72390 -46.58916 4507 ft 176 kts 329°
2026-05-07 23:49 -23.71357 -46.59630 4399 ft 176 kts 329°
2026-05-07 23:50 -23.70313 -46.60352 4201 ft 177 kts 329°
2026-05-07 23:50 -23.69316 -46.61043 3999 ft 162 kts 329°
2026-05-07 23:50 -23.68436 -46.61654 3837 ft 138 kts 330°
2026-05-07 23:50 -23.67667 -46.62187 3646 ft 127 kts 330°
2026-05-07 23:51 -23.66908 -46.62711 3494 ft 131 kts 330°
2026-05-07 23:51 -23.66131 -46.63248 3321 ft 134 kts 330°
2026-05-07 23:51 -23.65339 -46.63799 3095 ft 136 kts 331°
2026-05-07 23:51 -23.64538 -46.64359 2892 ft 137 kts 332°
2026-05-07 23:52 -23.63732 -46.64914 2714 ft 138 kts 330°
2026-05-07 23:52 -23.62935 -46.65462 2609 ft 120 kts 329°
2026-05-07 23:52 -23.62505 -46.65759 2603 ft 54 kts 328°
2026-05-07 23:52 -23.62219 -46.65957 2591 ft 26 kts 325°
2026-05-07 23:53 -23.62225 -46.66041 2596 ft 13 kts 200°
2026-05-07 23:53 -23.62293 -46.66012 2599 ft 7 kts 147°
2026-05-07 23:53 -23.62336 -46.65983 2599 ft 7 kts 147°
2026-05-07 23:53 -23.62378 -46.65954 2600 ft 7 kts 147°
2026-05-07 23:54 -23.62418 -46.65926 2600 ft 7 kts 147°
2026-05-07 23:54 -23.62457 -46.65898 2600 ft 7 kts 147°
2026-05-07 23:54 -23.62497 -46.65872 2601 ft 7 kts 148°
2026-05-07 23:54 -23.62535 -46.65845 2601 ft 6 kts 148°
2026-05-07 23:55 -23.62573 -46.65861 2600 ft 7 kts 232°
2026-05-07 23:55 -23.62597 -46.65901 2600 ft 2 kts 237°
2026-05-07 23:55 -23.62598 -46.65904 2600 ft 0 kts 237°